C/2016 R2 ( PanSTARRS )

Japanese version
Home page
Updated on March 25, 2017

---------------------------------------------------------------------

* Profile

Discovery Date September 7, 2016
Magnitude 19.1 mag
Discoverer Pan-STARRS 1 telescope (Haleakala)

* Pictures

* Orbital Elements

Epoch 2018 May 2.0 TT = JDT 2458240.5
T 2018 May  9.60205 TT                                  MPCW
q   2.6024045            (2000.0)            P               Q
z  +0.0014236      Peri.   33.19301     -0.14728573     -0.52443102
 +/-0.0000073      Node    80.56943     +0.61561570     -0.71222554
e   0.9962952      Incl.   58.22327     +0.77416033     +0.46659070
From 163 observations 2016 Aug. 30-2017 Feb. 28, mean residual 0".5.

* Finding Charts

* Magnitudes Graph

        m1 = 4.0 + 5 log d + 10.0 log r

---------------------------------------------------------------------

The orbital elements are published on M.P.E.C. 2017-E59.
The charts are made with StellaNavigator Ver.10 (AstroArts).
The magnitudes graphs are made with Comet for Windows.

---------------------------------------------------------------------

Copyright(C) Seiichi Yoshida (comet@aerith.net). All rights reserved.